Location: Ansan
(43.6898°N, 0.7731°E)
Time: 20:27:20
(UTC+00:00)

Okean 1-7 Rocket - Pass Details

Date: 15 May 2026
Orbit: 611 x 641 km, 82.5° (Epoch: 8 June)

Event Time Altitude Azimuth Distance (km) Brightness Sun altitude
Rises 21:42:33 0° 350° (N) 2,928 8.2 -20.5°
Reaches altitude 10° 21:44:47 10° 350° (N) 2,020 7.2 -20.7°
Maximum altitude 21:49:16 81° 263° (W) 648 3.6 -21.1°
Enters shadow 21:50:19 52° 185° (S) 788 3.7 -21.2°
